Hundvaag 1 weather for Oct 1992
Month no. 64
Obs.
Da.
Temp. Dew Point Precip. Wind
Speed
Wind gusts Cloud cover Press. Humidity Wind dir. Sunny OPT
01.10.1992 4,9   0,0             1  
02.10.1992 10,1   2,2                
03.10.1992 10,3   0,9             1  
04.10.1992 10,9   0,0             1  
05.10.1992 8,3   0,0                
06.10.1992 4,2   0,0             1  
07.10.1992 7,9   0,0             1  
08.10.1992 8,9   2,6                
09.10.1992 7,9   5,2             1  
10.10.1992 8,3   0,0                
11.10.1992 7,9   0,0             1  
12.10.1992 2,9   0,0                
13.10.1992 6,3   1,9                
14.10.1992 4,2   7,3                
15.10.1992 2,3   2,0             1  
16.10.1992 3,0   0,9                
17.10.1992 2,4   0,0             1  
18.10.1992 2,9   4,5             1  
19.10.1992 4,7   5,0             1  
20.10.1992 4,7   12,0                
21.10.1992 3,1   1,0                
22.10.1992 -2,8   0,0             1  
23.10.1992 0,8   0,0             1  
24.10.1992 7,4   0,0                
25.10.1992 3,8   1,9             1  
26.10.1992 0,2   0,0             1  
27.10.1992 3,7   0,0             1  
28.10.1992 5,0   0,0             1  
29.10.1992 3,0   0,0                
30.10.1992 1,0   0,2                
31.10.1992 2,4   12,0             1  
Avrg/Sum 4,9   59,6             18